Theta_e
315 309 305 303 292 290 286 291 292 294 295 295 297 297 304 298 303 300 306 314 316 316 319 323 328 328 328 328 328 329 329 329 330 330 330 330 332 333 335 337 338 340 342 345 348 348 348 347 347
310 311 304 295 287 282 285 289 291 295 296 295 295 294 294 295 299 302 307 312 314 315 317 319 326 325 325 325 325 325 326 326 326 326 326 326 327 327 327 328 329 334 339 342 343 344 345 345 347
304 309 299 292 285 283 285 288 290 295 295 296 292 293 293 295 300 304 306 310 311 311 315 320 323 323 323 323 323 323 323 323 323 323 324 324 323 323 324 323 324 327 330 333 337 340 341 340 341
303 301 294 287 284 287 287 292 295 295 294 295 292 290 293 299 300 303 308 309 307 309 313 319 320 321 321 321 321 321 321 321 320 320 321 321 321 321 321 322 323 322 323 325 327 329 331 334 336
300 292 286 284 284 286 289 294 295 294 294 293 293 289 292 297 302 306 306 306 305 305 308 311 318 318 319 319 319 319 318 318 318 317 317 317 317 317 317 317 319 320 321 322 323 323 323 325 327
295 290 283 282 282 287 289 292 293 293 292 292 292 290 293 296 303 302 303 303 303 304 306 308 314 315 315 316 316 316 315 315 315 314 314 313 313 314 314 314 316 318 319 319 320 320 321 321 323
292 286 283 281 283 286 289 291 289 291 291 290 293 290 292 294 299 299 299 299 300 300 301 300 304 308 312 312 312 312 312 312 311 310 310 309 309 309 309 310 313 314 315 316 316 317 318 318 318
292 289 283 281 284 286 288 288 289 290 288 292 293 290 289 294 297 297 297 296 297 297 296 296 296 297 296 301 310 310 309 309 307 307 306 305 304 305 305 306 309 310 311 312 312 313 314 313 312
291 285 282 283 284 286 288 287 289 289 287 288 290 293 296 296 296 295 294 294 294 296 295 295 295 295 296 298 300 303 305 305 303 301 303 299 295 297 297 303 306 307 307 308 309 309 310 308 306
287 282 284 284 283 284 287 287 287 286 286 286 289 294 296 295 295 293 292 292 293 293 294 295 294 294 295 299 295 295 297 295 294 294 295 296 294 296 297 298 302 302 303 304 306 306 305 302 299
288 284 285 285 287 287 288 286 288 286 285 287 287 292 294 293 293 293 293 293 294 294 295 295 294 294 293 294 293 293 293 292 293 292 294 293 293 292 292 292 293 293 297 295 297 297 297 297 298
284 287 287 288 288 287 286 288 287 286 286 288 288 294 294 293 293 293 293 293 293 293 294 295 294 294 293 293 292 292 292 291 291 291 293 292 291 290 290 291 291 291 293 292 293 294 296 296 297
285 286 288 288 287 286 288 285 285 286 288 288 292 294 293 293 293 294 295 295 294 293 294 293 293 293 293 292 292 291 291 291 290 291 292 292 290 289 290 290 291 290 292 292 292 293 294 295 296
287 287 287 288 288 288 286 284 285 285 287 287 292 292 293 293 293 293 294 294 294 295 294 294 293 293 293 292 291 291 290 290 290 290 291 292 291 290 291 290 290 290 291 292 292 292 293 294 295
288 284 286 286 288 286 287 283 283 285 287 287 288 292 293 294 294 294 296 295 295 295 295 294 293 293 292 291 291 291 291 292 289 290 290 291 292 291 290 290 289 290 291 292 292 293 293 293 295
284 284 280 286 287 287 284 282 286 285 285 287 287 288 291 293 295 295 296 296 295 294 294 294 296 293 292 290 290 290 290 289 289 289 290 291 292 291 289 289 289 290 291 291 291 291 292 292 292
283 278 280 282 287 285 283 282 286 285 285 286 286 286 288 289 292 294 294 295 295 295 294 293 293 292 291 290 290 289 289 289 289 289 288 289 290 290 289 289 289 290 290 290 291 291 291 290 290
276 276 279 279 283 284 282 283 287 287 286 286 285 286 286 288 290 293 294 294 295 294 293 292 291 291 291 290 289 288 288 288 288 288 288 289 289 290 289 289 289 290 290 289 289 289 290 290 289
279 278 277 280 283 281 280 281 285 287 285 284 285 286 285 287 290 292 292 293 293 291 292 291 291 291 289 287 286 286 286 286 286 287 288 289 289 290 289 288 288 288 287 288 288 288 288 288 289
281 278 276 281 282 280 278 279 284 284 283 282 283 283 285 286 288 289 290 291 291 291 291 291 291 290 289 288 287 286 285 285 286 287 287 287 289 290 289 288 287 287 287 287 287 287 286 287 288
279 277 276 277 279 278 276 275 279 281 283 284 284 283 283 286 287 287 289 288 288 288 288 289 290 290 289 289 287 286 286 285 284 285 285 287 288 289 288 288 287 286 286 286 286 286 286 285 287
277 280 280 278 272 268 275 269 276 277 280 282 283 282 282 284 286 287 287 287 287 288 288 289 289 289 289 288 287 285 284 283 283 283 284 286 287 287 288 287 286 285 286 285 286 288 287 287 286
278 280 278 276 267 268 270 265 274 277 278 280 282 282 282 283 285 286 287 288 288 288 287 287 288 288 289 287 287 285 284 283 283 282 284 285 286 286 286 286 285 285 286 286 286 286 287 288 287
281 277 275 273 265 264 263 266 273 277 278 278 280 282 283 283 284 285 286 287 286 286 286 286 287 288 288 287 286 285 283 282 281 282 282 283 283 284 285 286 286 288 287 288 288 288 289 289 289
278 268 264 265 264 266 260 266 274 279 280 279 281 282 282 283 283 284 284 285 285 284 284 285 285 285 286 286 284 283 282 281 281 282 282 282 282 282 283 285 287 287 288 288 288 288 288 288 288
275 269 266 260 263 266 261 266 276 279 279 280 281 282 282 282 282 283 284 284 283 284 284 284 284 283 284 283 282 281 282 282 282 282 282 281 281 283 285 285 288 288 288 288 288 288 289 289 289
274 266 273 262 255 260 266 271 278 279 276 279 280 280 282 282 282 283 283 283 283 283 283 284 283 283 283 282 281 280 281 282 281 281 281 281 282 284 285 285 287 287 288 288 288 288 288 289 289
273 275 267 264 261 257 263 260 272 276 275 276 277 277 279 281 281 282 283 283 283 283 283 282 282 282 282 281 280 281 282 281 281 281 281 281 282 284 284 285 287 287 288 288 288 288 289 289 289
269 267 267 267 268 262 259 267 272 274 276 274 275 278 275 278 280 281 282 283 282 282 282 282 281 281 280 280 280 281 281 281 281 281 281 282 283 285 285 285 286 287 287 288 287 287 288 288 288
275 270 272 267 263 263 265 269 277 274 267 264 273 274 274 274 278 278 280 280 281 281 281 281 280 280 280 279 281 281 281 281 280 280 281 282 284 285 285 285 285 286 286 286 286 285 286 286 286
Wind_Speed
8 7 1 5 4 5 3 6 2 2 1 3 2 3 5 5 4 6 2 6 7 8 6 7 14 15 13 14 14 16 16 17 16 16 16 16 15 14 14 14 13 12 10 11 12 11 9 6 4
4 3 5 3 5 2 5 5 5 4 5 6 5 2 6 2 2 5 6 4 7 8 6 6 13 14 14 14 15 15 16 16 16 16 16 15 15 15 14 14 14 13 11 12 12 13 15 15 12
2 1 4 5 4 6 5 5 3 2 8 3 4 6 2 4 3 7 5 8 7 7 6 6 13 14 14 14 15 16 16 16 17 16 16 15 15 16 15 15 14 14 15 14 15 15 15 15 14
2 4 5 4 5 6 5 2 3 5 2 4 4 6 2 2 9 7 7 8 9 7 6 9 13 13 14 15 15 15 16 16 17 17 16 16 16 16 16 16 16 15 15 14 14 14 14 15 14
4 3 3 1 4 4 2 3 6 3 2 3 2 4 2 3 6 12 9 8 10 6 6 6 13 13 14 14 14 14 15 16 16 16 16 16 16 16 16 16 15 15 15 15 15 15 14 14 14
4 3 3 3 4 3 0 2 4 2 1 4 6 4 3 3 11 6 7 7 7 8 6 6 10 11 13 13 13 14 14 15 16 16 17 17 16 16 16 16 16 16 16 16 16 16 15 15 15
6 4 4 3 3 1 2 1 2 4 3 1 9 5 1 4 5 7 7 7 7 6 6 5 6 8 11 12 12 13 14 14 16 16 16 16 16 16 17 17 16 16 16 16 16 16 17 17 17
5 4 3 2 3 3 3 2 1 1 2 4 2 5 5 6 9 7 6 7 7 6 6 5 4 4 5 5 11 12 13 14 15 14 14 14 14 15 16 16 17 17 16 17 16 16 17 17 16
3 5 2 3 3 1 5 1 2 1 4 2 2 5 2 13 10 7 6 4 4 4 5 4 4 4 4 5 6 9 11 12 12 11 13 9 5 6 9 13 16 17 17 17 17 17 17 17 15
5 4 7 1 1 1 3 2 4 2 1 1 0 3 8 13 13 11 8 8 6 5 4 5 4 4 4 4 5 5 5 4 5 5 6 5 6 5 8 10 14 16 16 17 17 18 17 12 6
2 4 3 1 2 1 3 0 4 3 4 6 6 6 9 9 10 11 8 10 10 6 4 5 5 4 4 4 3 2 3 3 3 6 5 5 4 4 4 4 4 4 11 5 8 8 6 7 6
3 1 1 1 2 3 2 6 6 3 4 3 3 10 12 12 13 13 11 9 8 7 7 6 5 5 4 3 3 2 2 2 2 3 4 3 3 4 3 2 3 4 3 5 4 3 6 7 7
2 2 3 1 2 2 3 3 5 8 7 3 6 7 12 11 10 7 8 6 7 7 7 7 6 5 4 4 3 2 2 2 1 2 3 2 2 3 3 3 3 4 4 4 5 5 6 6 7
2 2 2 1 1 2 3 2 3 4 2 6 7 10 9 11 13 6 7 8 8 7 8 7 7 6 5 4 3 2 1 1 2 3 3 5 3 4 4 4 4 4 3 4 3 4 5 6 5
3 2 2 0 1 1 2 5 7 6 2 5 8 8 9 11 7 12 12 10 9 6 8 9 8 6 6 5 4 3 1 1 1 2 4 4 4 4 5 4 4 4 4 5 5 6 5 6 6
2 3 2 0 3 1 1 7 3 2 5 7 8 7 8 11 12 9 8 8 8 6 11 9 7 7 6 5 3 2 1 0 1 2 2 4 4 4 4 3 4 4 4 4 4 5 7 8 7
7 2 1 2 4 3 2 7 3 2 1 6 7 8 9 8 8 9 9 9 9 10 10 8 7 7 6 4 2 2 1 1 2 2 2 4 4 5 3 3 4 4 4 3 4 6 5 8 8
3 2 2 3 5 3 4 15 14 8 9 10 10 9 9 9 12 10 9 8 8 8 7 6 5 6 5 3 1 1 1 2 1 1 3 4 4 5 4 4 4 4 4 4 4 5 5 5 8
2 2 2 3 4 4 4 11 19 10 7 9 11 11 10 9 6 6 7 7 7 6 7 7 7 6 3 2 1 1 3 1 2 2 3 4 4 4 3 3 4 4 4 5 5 6 7 5 4
4 2 4 5 3 3 5 17 19 11 6 4 7 8 8 5 5 5 7 6 6 7 7 7 7 6 5 3 2 2 2 2 2 2 3 4 4 4 4 4 4 4 4 5 5 6 7 4 4
2 2 2 3 8 1 8 9 6 3 3 4 4 4 1 7 8 6 7 6 6 7 7 7 7 7 6 6 2 1 1 1 1 2 2 3 5 5 5 5 4 4 4 5 5 6 7 6 4
1 3 2 3 5 3 5 7 9 4 7 4 5 5 3 5 4 5 6 6 7 7 5 5 6 6 5 6 4 5 3 2 2 1 2 4 5 5 5 4 4 4 4 5 5 6 4 4 6
1 3 2 3 4 4 6 5 11 4 5 6 6 4 3 4 5 7 7 8 6 6 6 5 5 6 5 6 5 4 3 3 2 2 4 5 5 5 5 5 5 5 4 6 7 6 6 5 6
2 3 5 4 4 4 4 4 9 4 4 4 3 5 6 6 6 6 6 5 5 4 4 4 4 4 4 6 6 6 6 4 3 3 3 4 3 4 5 6 5 6 8 8 6 7 8 7 7
6 7 5 8 6 6 2 1 13 7 6 5 6 9 9 7 7 6 7 7 7 7 6 4 5 5 6 6 6 6 6 5 6 5 3 4 3 3 5 6 6 6 7 8 8 8 8 8 8
3 6 7 6 2 6 2 7 10 5 5 6 7 7 6 8 7 9 10 8 8 8 7 6 6 5 5 6 6 5 5 3 3 4 4 4 4 4 6 6 7 8 9 8 8 7 7 9 8
2 3 2 7 2 4 4 10 12 3 7 7 8 6 10 10 10 11 9 8 8 8 8 8 6 6 6 7 5 5 4 5 4 5 4 4 5 5 5 5 8 8 9 10 9 7 9 9 9
5 2 5 5 2 6 7 8 9 9 8 7 7 8 9 7 8 8 8 8 6 7 6 6 6 7 6 6 5 5 5 4 3 3 5 5 5 5 5 7 8 9 9 9 9 8 9 10 9
2 2 4 4 5 6 3 9 9 9 8 7 8 9 8 9 10 9 8 7 6 6 6 7 7 7 6 6 5 6 5 4 3 3 4 5 4 6 7 7 8 9 9 8 8 9 11 11 11
4 6 5 6 7 3 3 14 7 8 2 2 10 9 6 7 9 8 8 7 7 7 7 8 7 7 7 6 6 6 4 3 2 3 5 5 6 7 7 7 8 8 9 9 9 10 10 11 12
Wind_Direction
333 317 39 39 60 60 239 251 253 151 99 338 52 133 148 57 164 197 314 124 109 88 73 78 87 88 83 77 74 73 69 65 61 57 53 53 52 50 44 37 33 28 20 15 8 17 2 348 322
335 329 42 83 103 135 260 247 228 188 146 135 84 52 40 94 84 115 105 123 106 101 74 78 89 90 84 79 75 72 69 66 60 55 52 50 48 44 40 38 32 27 20 15 6 11 12 10 354
303 23 94 119 142 190 218 222 216 155 151 147 87 46 125 154 99 146 127 122 92 88 85 90 97 91 87 82 77 73 69 66 59 55 53 51 48 39 37 32 30 31 24 15 7 7 7 6 356
80 22 32 107 213 242 208 211 168 139 135 97 113 73 358 284 150 152 126 117 100 91 90 100 99 94 88 83 76 74 70 67 60 55 52 49 42 39 36 33 28 18 14 12 9 4 358 355 349
43 55 82 175 254 265 243 171 154 186 114 71 138 165 13 27 111 127 127 123 116 98 85 86 94 91 86 83 78 74 69 66 62 55 51 48 43 37 32 26 23 19 14 10 8 4 359 353 347
46 99 83 211 253 268 93 159 178 144 77 143 77 100 161 118 131 148 129 125 113 116 98 76 81 84 84 81 80 72 66 63 57 53 51 46 41 40 34 27 21 17 14 10 6 4 0 357 353
117 92 208 191 242 240 187 45 141 144 134 72 145 112 313 160 154 136 128 113 111 108 101 79 67 64 77 81 78 74 68 66 56 53 49 45 41 37 31 26 21 18 11 8 4 1 359 356 350
107 93 155 276 210 215 357 76 123 132 129 108 144 179 191 180 152 124 115 117 121 117 112 104 85 79 67 54 67 67 60 60 52 50 48 46 41 36 31 26 20 17 14 7 3 359 356 354 352
108 66 209 231 173 303 1 78 6 344 109 55 23 147 225 129 128 119 113 96 111 130 138 126 112 102 87 77 55 51 51 53 45 40 36 36 30 22 30 21 22 17 13 5 2 359 356 353 350
88 121 218 160 176 269 307 34 341 41 49 198 15 18 119 136 155 153 160 157 167 172 170 146 133 124 102 88 71 62 55 48 44 38 33 28 26 19 27 21 20 14 10 3 1 357 355 352 344
140 179 157 223 337 345 306 23 315 122 244 223 201 161 154 149 165 168 174 176 178 174 163 167 156 138 121 105 92 61 54 46 33 34 34 31 25 16 15 9 4 359 1 357 355 350 348 341 338
120 88 64 145 350 355 344 320 322 215 229 346 248 164 164 169 176 177 180 179 163 173 182 176 165 152 140 116 92 87 70 59 43 24 29 32 19 13 9 15 357 357 342 345 343 335 326 327 321
99 149 80 103 23 349 343 261 268 267 250 305 113 149 180 183 188 189 182 175 169 184 181 184 172 173 160 131 120 101 74 61 36 22 12 36 19 7 354 0 358 352 348 347 340 333 330 324 319
109 94 99 52 48 20 336 286 4 278 312 210 159 191 195 192 195 170 174 191 186 190 184 176 188 181 166 161 150 139 82 3 10 358 354 1 5 358 360 351 350 342 340 325 318 318 320 313 304
108 77 356 309 22 336 43 281 238 252 333 196 216 205 209 215 182 202 198 195 187 194 178 184 183 180 182 176 163 154 185 86 330 331 343 346 350 348 343 336 335 325 327 329 332 331 321 317 313
52 47 54 181 10 28 347 274 244 22 176 227 220 223 214 219 211 210 204 196 191 162 178 180 180 179 188 175 162 172 181 269 302 327 338 339 337 335 328 325 317 313 322 324 329 320 324 321 315
17 176 310 335 38 335 36 273 242 70 156 262 245 232 227 228 222 221 204 196 180 178 176 177 177 178 185 175 167 192 268 277 295 327 342 324 324 324 323 310 303 316 318 321 320 323 312 312 310
271 23 313 278 351 351 276 265 276 259 249 251 250 246 230 226 228 209 195 188 177 172 166 162 155 174 178 141 107 1 300 277 269 273 296 311 313 317 320 315 315 325 321 307 301 300 296 286 297
82 73 304 290 23 338 265 283 283 290 265 262 253 250 241 231 231 171 154 142 133 134 148 162 165 187 143 132 170 238 237 231 273 272 289 308 309 318 328 314 317 310 295 287 286 295 293 294 293
62 72 296 292 43 5 339 291 281 285 253 246 281 278 236 185 146 153 138 136 159 159 164 167 191 185 191 174 187 174 176 216 240 263 289 305 308 318 316 325 311 314 309 299 287 285 292 279 297
56 139 338 263 329 15 331 292 314 323 304 319 348 317 209 192 165 150 145 150 139 164 180 189 203 209 209 196 136 107 51 8 317 293 301 316 331 320 319 317 316 307 292 289 280 274 266 281 274
358 5 34 11 40 274 21 281 302 328 301 285 323 7 75 114 104 127 141 153 174 199 195 217 227 230 227 190 180 184 196 237 236 245 278 307 310 305 301 292 292 280 273 275 274 274 259 265 279
151 36 64 88 91 47 349 69 271 325 294 259 242 245 219 197 172 169 176 182 198 190 203 222 245 249 236 194 189 187 215 230 269 291 293 296 300 291 280 266 263 263 257 256 256 266 261 250 262
79 55 41 63 94 24 269 109 286 257 225 297 232 225 216 205 204 203 202 186 209 200 197 207 228 248 211 189 190 193 213 239 263 269 274 274 270 272 267 261 254 286 288 277 278 273 277 269 267
60 48 339 355 10 226 300 33 245 259 270 246 237 219 209 204 200 203 205 208 209 202 215 219 209 235 217 201 193 196 212 219 238 262 273 287 281 269 266 257 266 270 269 272 273 273 268 266 262
54 132 149 225 273 273 356 245 252 223 287 271 269 228 204 200 205 210 214 212 217 231 233 230 225 232 203 193 201 200 210 216 235 246 254 255 255 257 260 269 274 273 275 274 272 270 265 263 258
278 39 168 98 78 42 256 289 295 308 279 255 255 209 210 214 212 216 219 222 235 243 238 227 224 226 211 205 202 209 211 218 240 268 270 266 266 272 269 282 288 283 278 274 273 268 267 263 265
131 145 34 6 337 299 293 279 244 299 287 277 271 238 244 247 248 244 239 240 249 252 246 232 223 222 213 205 202 206 209 217 242 271 276 279 276 276 289 294 292 289 283 277 274 271 269 268 266
33 359 38 124 153 198 280 261 216 236 252 265 269 256 252 250 239 242 243 240 253 270 248 232 218 216 210 200 200 204 211 220 248 266 277 280 295 299 293 289 292 293 291 287 285 283 281 276 277
169 190 157 130 269 233 166 269 239 243 264 274 285 273 289 272 272 266 256 272 279 263 252 235 219 206 209 201 196 205 207 220 270 290 288 292 294 292 291 294 297 298 294 291 287 284 283 280 280